Weather History for KOLF - August, 2014

Change the Weather History Date:

Monday, August 11, 2014

  Actual Average Record
Temperature  
Mean Temperature 73 °F -  
Max Temperature 93 °F 87 °F 104 °F (2003)
Min Temperature 52 °F 55 °F 39 °F (2004)
Degree Days  
Heating Degree Days 0    
Cooling Degree Days 8    
Growing Degree Days 22 (Base 50)    
Moisture  
Dew Point 47 °F    
Average Humidity 43    
Maximum Humidity 75    
Minimum Humidity 20    
Precipitation  
Precipitation 0.00 in 0.04 in 0.19 in (2012)
Month to date precipitation 0.44 0.54  
Year to date precipitation 5.61 8.93  
Sea Level Pressure  
Sea Level Pressure 30.14 in    
Wind  
Wind Speed 7 mph (East)    
Max Wind Speed 13 mph    
Max Gust Speed -    
Visibility 10 miles    
Events      
T = Trace of Precipitation, MM = Missing Value Source: NWS Daily Summary

Daily Weather History Graph

Daily Weather History Graph

Search for Another Location

Airport or City:

Trip Planner

Search our weather history database for the weather conditions in past years. The results will help you decide how hot, cold, wet, or windy it might be!

Date:

Astronomy

Aug. 11, 2014 Rise Set
Actual Time 5:51 AM MDT 8:22 PM MDT
Civil Twilight 5:16 AM MDT 8:57 PM MDT
Nautical Twilight 4:32 AM MDT 9:40 PM MDT
Astronomical Twilight 3:41 AM MDT 10:31 PM MDT
Moon 8:40 PM MDT (8/11) 7:09 AM MDT (8/11)
Length of Visible Light 15h 40m
Length of Day
14h 30m
Full, 98% of the Moon is Illuminated
Aug 11
Full
Aug 17
Last Quarter
Aug 25
New
Sep 2
First Quarter
Sep 8
Full

Hourly Weather History & Observations

Time (MDT) Temp. Dew Point Humidity Pressure Visibility Wind Dir Wind Speed Gust Speed Precip Events Conditions
12:53 AM 60.1 °F 46.0 °F 60% 30.21 in 10.0 mi ENE 5.8 mph - N/A   Clear
1:53 AM 59.0 °F 46.0 °F 62% 30.22 in 10.0 mi ENE 4.6 mph - N/A   Clear
2:53 AM 55.9 °F 45.0 °F 67% 30.22 in 10.0 mi ENE 6.9 mph - N/A   Clear
3:53 AM 55.9 °F 45.0 °F 67% 30.22 in 10.0 mi ENE 4.6 mph - N/A   Clear
4:53 AM 55.0 °F 46.0 °F 72% 30.22 in 10.0 mi ENE 6.9 mph - N/A   Clear
5:53 AM 54.0 °F 46.0 °F 75% 30.22 in 10.0 mi NE 3.5 mph - N/A   Clear
6:53 AM 55.9 °F 48.0 °F 75% 30.22 in 10.0 mi East 5.8 mph - N/A   Clear
7:53 AM 62.1 °F 48.9 °F 62% 30.22 in 10.0 mi East 10.4 mph - N/A   Clear
8:53 AM 68.0 °F 50.0 °F 52% 30.22 in 10.0 mi East 9.2 mph - N/A   Clear
9:53 AM 75.0 °F 50.0 °F 41% 30.21 in 10.0 mi East 10.4 mph - N/A   Clear
10:53 AM 81.0 °F 50.0 °F 34% 30.19 in 10.0 mi East 10.4 mph - N/A   Clear
11:53 AM 84.9 °F 48.0 °F 28% 30.17 in 10.0 mi East 10.4 mph - N/A   Clear
12:53 PM 88.0 °F 46.0 °F 23% 30.15 in 10.0 mi SSW 5.8 mph - N/A   Mostly Cloudy
1:53 PM 87.1 °F 45.0 °F 23% 30.14 in 10.0 mi ESE 5.8 mph - N/A   Mostly Cloudy
2:53 PM 88.0 °F 45.0 °F 22% 30.12 in 10.0 mi ESE 3.5 mph - N/A   Mostly Cloudy
3:53 PM 91.0 °F 44.1 °F 20% 30.09 in 10.0 mi North - - N/A   Partly Cloudy
4:53 PM 91.0 °F 45.0 °F 20% 30.08 in 10.0 mi Variable 6.9 mph - N/A   Partly Cloudy
5:53 PM 91.0 °F 45.0 °F 20% 30.06 in 10.0 mi ESE 6.9 mph - N/A   Partly Cloudy
6:53 PM 89.1 °F 46.9 °F 23% 30.04 in 10.0 mi ESE 12.7 mph - N/A   Clear
7:53 PM 84.0 °F 48.9 °F 29% 30.04 in 10.0 mi ESE 8.1 mph - N/A   Clear
8:53 PM 80.1 °F 50.0 °F 35% 30.04 in 10.0 mi ESE 5.8 mph - N/A   Clear
9:53 PM 73.9 °F 48.9 °F 41% 30.05 in 10.0 mi ENE 5.8 mph - N/A   Clear
10:53 PM 75.0 °F 48.9 °F 40% 30.05 in 10.0 mi ESE 6.9 mph - N/A   Clear
11:53 PM 71.1 °F 48.9 °F 45% 30.06 in 10.0 mi ENE 6.9 mph - N/A   Clear